Year,Month,Day,Hour,Minute,Value (Times are PST for barometer in hPa)
2013,09,29,00,00,992.60
2013,09,29,00,01,992.60
2013,09,29,00,02,992.60
2013,09,29,00,03,992.60
2013,09,29,00,04,992.60
2013,09,29,00,05,992.60
2013,09,29,00,06,992.60
2013,09,29,00,07,992.60
2013,09,29,00,08,992.60
2013,09,29,00,09,992.60
2013,09,29,00,10,992.60
2013,09,29,00,11,992.60
2013,09,29,00,12,992.60
2013,09,29,00,13,993.10
2013,09,29,00,14,993.10
2013,09,29,00,15,993.10
2013,09,29,00,16,993.10
2013,09,29,00,17,993.10
2013,09,29,00,18,993.10
2013,09,29,00,19,993.10
2013,09,29,00,20,993.10
2013,09,29,00,21,993.10
2013,09,29,00,22,993.10
2013,09,29,00,23,993.10
2013,09,29,00,24,993.10
2013,09,29,00,25,993.10
2013,09,29,00,26,993.10
2013,09,29,00,27,993.10
2013,09,29,00,28,993.10
2013,09,29,00,29,993.10
2013,09,29,00,30,993.10
2013,09,29,00,31,993.10
2013,09,29,00,32,993.10
2013,09,29,00,33,993.10
2013,09,29,00,34,993.10
2013,09,29,00,35,993.10
2013,09,29,00,36,993.10
2013,09,29,00,37,993.10
2013,09,29,00,38,993.10
2013,09,29,00,39,993.10
2013,09,29,00,40,993.10
2013,09,29,00,41,993.10
2013,09,29,00,42,993.10
2013,09,29,00,43,993.00
2013,09,29,00,44,993.00
2013,09,29,00,45,993.00
2013,09,29,00,46,993.00
2013,09,29,00,47,993.00
2013,09,29,00,48,993.00
2013,09,29,00,49,993.00
2013,09,29,00,50,993.00
2013,09,29,00,51,993.00
2013,09,29,00,52,993.00
2013,09,29,00,53,993.00
2013,09,29,00,54,993.00
2013,09,29,00,55,993.00
2013,09,29,00,56,993.00
2013,09,29,00,57,993.00
2013,09,29,00,58,993.10
2013,09,29,00,59,993.10
2013,09,29,01,00,993.10
2013,09,29,01,01,993.10
2013,09,29,01,02,993.10
2013,09,29,01,03,993.10
2013,09,29,01,04,993.10
2013,09,29,01,05,993.10
2013,09,29,01,06,993.10
2013,09,29,01,07,993.10
2013,09,29,01,08,993.10
2013,09,29,01,09,993.10
2013,09,29,01,10,993.10
2013,09,29,01,11,993.10
2013,09,29,01,12,993.10
2013,09,29,01,13,993.20
2013,09,29,01,14,993.20
2013,09,29,01,15,993.20
2013,09,29,01,16,993.20
2013,09,29,01,17,993.20
2013,09,29,01,18,993.20
2013,09,29,01,19,993.20
2013,09,29,01,20,993.20
2013,09,29,01,21,993.20
2013,09,29,01,22,993.20
2013,09,29,01,23,993.20
2013,09,29,01,24,993.20
2013,09,29,01,25,993.20
2013,09,29,01,26,993.20
2013,09,29,01,27,993.20
2013,09,29,01,28,993.10
2013,09,29,01,29,993.10
2013,09,29,01,30,993.10
2013,09,29,01,31,993.10
2013,09,29,01,32,993.10
2013,09,29,01,33,993.10
2013,09,29,01,34,993.10
2013,09,29,01,35,993.10
2013,09,29,01,36,993.10
2013,09,29,01,37,993.10
2013,09,29,01,38,993.10
2013,09,29,01,39,993.10
2013,09,29,01,40,993.10
2013,09,29,01,41,993.10
2013,09,29,01,42,993.10
2013,09,29,01,43,993.10
2013,09,29,01,45,993.60
2013,09,29,01,46,993.60
2013,09,29,01,47,993.60
2013,09,29,01,48,993.60
2013,09,29,01,49,993.60
2013,09,29,01,50,993.60
2013,09,29,01,51,993.60
2013,09,29,01,52,993.60
2013,09,29,01,53,993.60
2013,09,29,01,54,993.60
2013,09,29,01,55,993.60
2013,09,29,01,56,993.60
2013,09,29,01,57,993.60
2013,09,29,01,58,993.60
2013,09,29,01,59,993.50
2013,09,29,02,00,993.50
2013,09,29,02,01,993.50
2013,09,29,02,02,993.50
2013,09,29,02,03,993.50
2013,09,29,02,04,993.50
2013,09,29,02,05,993.50
2013,09,29,02,06,993.50
2013,09,29,02,07,993.50
2013,09,29,02,08,993.50
2013,09,29,02,09,993.50
2013,09,29,02,10,993.50
2013,09,29,02,11,993.50
2013,09,29,02,12,993.50
2013,09,29,02,13,993.50
2013,09,29,02,14,993.50
2013,09,29,02,15,993.50
2013,09,29,02,16,993.50
2013,09,29,02,17,993.50
2013,09,29,02,18,993.50
2013,09,29,02,19,993.50
2013,09,29,02,20,993.50
2013,09,29,02,21,993.50
2013,09,29,02,22,993.50
2013,09,29,02,23,993.50
2013,09,29,02,24,993.50
2013,09,29,02,25,993.50
2013,09,29,02,26,993.50
2013,09,29,02,27,993.50
2013,09,29,02,28,993.50
2013,09,29,02,29,993.60
2013,09,29,02,30,993.60
2013,09,29,02,31,993.60
2013,09,29,02,32,993.60
2013,09,29,02,33,993.60
2013,09,29,02,34,993.60
2013,09,29,02,35,993.60
2013,09,29,02,36,993.60
2013,09,29,02,37,993.60
2013,09,29,02,38,993.60
2013,09,29,02,39,993.60
2013,09,29,02,40,993.60
2013,09,29,02,41,993.60
2013,09,29,02,42,993.60
2013,09,29,02,43,993.60
2013,09,29,02,44,993.40
2013,09,29,02,45,993.40
2013,09,29,02,46,993.40
2013,09,29,02,47,993.40
2013,09,29,02,48,993.40
2013,09,29,02,49,993.40
2013,09,29,02,50,993.40
2013,09,29,02,51,993.40
2013,09,29,02,52,993.40
2013,09,29,02,53,993.40
2013,09,29,02,54,993.40
2013,09,29,02,55,993.40
2013,09,29,02,56,993.40
2013,09,29,02,57,993.40
2013,09,29,02,58,993.40
2013,09,29,02,59,993.40
2013,09,29,03,00,993.40
2013,09,29,03,01,993.40
2013,09,29,03,02,993.40
2013,09,29,03,03,993.40
2013,09,29,03,04,993.40
2013,09,29,03,05,993.40
2013,09,29,03,06,993.40
2013,09,29,03,07,993.40
2013,09,29,03,08,993.40
2013,09,29,03,09,993.40
2013,09,29,03,10,993.40
2013,09,29,03,11,993.40
2013,09,29,03,12,993.40
2013,09,29,03,13,993.40
2013,09,29,03,14,993.10
2013,09,29,03,15,993.10
2013,09,29,03,16,993.10
2013,09,29,03,17,993.10
2013,09,29,03,18,993.10
2013,09,29,03,19,993.10
2013,09,29,03,20,993.10
2013,09,29,03,21,993.10
2013,09,29,03,22,993.10
2013,09,29,03,23,993.10
2013,09,29,03,24,993.10
2013,09,29,03,25,993.10
2013,09,29,03,26,993.10
2013,09,29,03,27,993.10
2013,09,29,03,28,993.10
2013,09,29,03,29,993.00
2013,09,29,03,30,993.00
2013,09,29,03,31,993.00
2013,09,29,03,32,993.00
2013,09,29,03,33,993.00
2013,09,29,03,34,993.00
2013,09,29,03,35,993.00
2013,09,29,03,36,993.00
2013,09,29,03,37,993.00
2013,09,29,03,38,993.00
2013,09,29,03,39,993.00
2013,09,29,03,40,993.00
2013,09,29,03,41,993.00
2013,09,29,03,42,993.00
2013,09,29,03,43,993.00
2013,09,29,03,44,992.60
2013,09,29,03,45,992.60
2013,09,29,03,46,992.60
2013,09,29,03,47,992.60
2013,09,29,03,48,992.60
2013,09,29,03,49,992.60
2013,09,29,03,50,992.60
2013,09,29,03,51,992.60
2013,09,29,03,52,992.60
2013,09,29,03,53,992.60
2013,09,29,03,54,992.60
2013,09,29,03,55,992.60
2013,09,29,03,56,992.60
2013,09,29,03,57,992.60
2013,09,29,03,58,992.60
2013,09,29,03,59,992.60
2013,09,29,04,00,992.60
2013,09,29,04,01,992.60
2013,09,29,04,02,992.60
2013,09,29,04,03,992.60
2013,09,29,04,04,992.60
2013,09,29,04,05,992.60
2013,09,29,04,06,992.60
2013,09,29,04,07,992.60
2013,09,29,04,08,992.60
2013,09,29,04,09,992.60
2013,09,29,04,10,992.60
2013,09,29,04,11,992.60
2013,09,29,04,12,992.60
2013,09,29,04,13,992.60
2013,09,29,04,14,992.70
2013,09,29,04,15,992.70
2013,09,29,04,16,992.70
2013,09,29,04,17,992.70
2013,09,29,04,18,992.70
2013,09,29,04,19,992.70
2013,09,29,04,20,992.70
2013,09,29,04,21,992.70
2013,09,29,04,22,992.70
2013,09,29,04,23,992.70
2013,09,29,04,24,992.70
2013,09,29,04,25,992.70
2013,09,29,04,26,992.70
2013,09,29,04,27,992.70
2013,09,29,04,28,992.70
2013,09,29,04,29,993.10
2013,09,29,04,30,993.10
2013,09,29,04,31,993.10
2013,09,29,04,32,993.10
2013,09,29,04,33,993.10
2013,09,29,04,34,993.10
2013,09,29,04,35,993.10
2013,09,29,04,36,993.10
2013,09,29,04,37,993.10
2013,09,29,04,38,993.10
2013,09,29,04,39,993.10
2013,09,29,04,40,993.10
2013,09,29,04,41,993.10
2013,09,29,04,42,993.10
2013,09,29,04,43,993.10
2013,09,29,04,44,993.10
2013,09,29,04,45,993.10
2013,09,29,04,46,993.10
2013,09,29,04,47,993.10
2013,09,29,04,48,993.10
2013,09,29,04,49,993.10
2013,09,29,04,50,993.10
2013,09,29,04,51,993.10
2013,09,29,04,52,993.10
2013,09,29,04,53,993.10
2013,09,29,04,54,993.10
2013,09,29,04,55,993.10
2013,09,29,04,56,993.10
2013,09,29,04,57,993.10
2013,09,29,04,58,993.10
2013,09,29,04,59,993.40
2013,09,29,05,00,993.40
2013,09,29,05,01,993.40
2013,09,29,05,02,993.40
2013,09,29,05,03,993.40
2013,09,29,05,04,993.40
2013,09,29,05,05,993.40
2013,09,29,05,06,993.40
2013,09,29,05,07,993.40
2013,09,29,05,08,993.40
2013,09,29,05,09,993.40
2013,09,29,05,10,993.40
2013,09,29,05,11,993.40
2013,09,29,05,12,993.40
2013,09,29,05,13,993.40
2013,09,29,05,14,993.50
2013,09,29,05,15,993.50
2013,09,29,05,16,993.50
2013,09,29,05,17,993.50
2013,09,29,05,18,993.50
2013,09,29,05,19,993.50
2013,09,29,05,20,993.50
2013,09,29,05,21,993.50
2013,09,29,05,22,993.50
2013,09,29,05,23,993.50
2013,09,29,05,24,993.50
2013,09,29,05,25,993.50
2013,09,29,05,26,993.50
2013,09,29,05,27,993.50
2013,09,29,05,28,993.50
2013,09,29,05,29,993.20
2013,09,29,05,30,993.20
2013,09,29,05,31,993.20
2013,09,29,05,32,993.20
2013,09,29,05,33,993.20
2013,09,29,05,34,993.20
2013,09,29,05,35,993.20
2013,09,29,05,36,993.20
2013,09,29,05,37,993.20
2013,09,29,05,38,993.20
2013,09,29,05,39,993.20
2013,09,29,05,40,993.20
2013,09,29,05,41,993.20
2013,09,29,05,42,993.20
2013,09,29,05,43,993.20
2013,09,29,05,44,993.10
2013,09,29,05,45,993.10
2013,09,29,05,46,993.10
2013,09,29,05,47,993.10
2013,09,29,05,48,993.10
2013,09,29,05,49,993.10
2013,09,29,05,50,993.10
2013,09,29,05,51,993.10
2013,09,29,05,52,993.10
2013,09,29,05,53,993.10
2013,09,29,05,54,993.10
2013,09,29,05,55,993.10
2013,09,29,05,56,993.10
2013,09,29,05,57,993.10
2013,09,29,05,58,993.10
2013,09,29,05,59,993.20
2013,09,29,06,00,993.20
2013,09,29,06,01,993.20
2013,09,29,06,02,993.20
2013,09,29,06,03,993.20
2013,09,29,06,04,993.20
2013,09,29,06,05,993.20
2013,09,29,06,06,993.20
2013,09,29,06,07,993.20
2013,09,29,06,08,993.20
2013,09,29,06,09,993.20
2013,09,29,06,10,993.20
2013,09,29,06,11,993.20
2013,09,29,06,12,993.20
2013,09,29,06,13,993.20
2013,09,29,06,14,993.30
2013,09,29,06,15,993.30
2013,09,29,06,16,993.30
2013,09,29,06,17,993.30
2013,09,29,06,18,993.30
2013,09,29,06,19,993.30
2013,09,29,06,20,993.30
2013,09,29,06,21,993.30
2013,09,29,06,22,993.30
2013,09,29,06,23,993.30
2013,09,29,06,24,993.30
2013,09,29,06,25,993.30
2013,09,29,06,26,993.30
2013,09,29,06,27,993.30
2013,09,29,06,28,993.30
2013,09,29,06,29,993.30
2013,09,29,06,30,993.30
2013,09,29,06,31,993.30
2013,09,29,06,32,993.30
2013,09,29,06,33,993.30
2013,09,29,06,34,993.30
2013,09,29,06,35,993.30
2013,09,29,06,36,993.30
2013,09,29,06,37,993.30
2013,09,29,06,38,993.30
2013,09,29,06,39,993.30
2013,09,29,06,40,993.30
2013,09,29,06,41,993.30
2013,09,29,06,42,993.30
2013,09,29,06,43,993.30
2013,09,29,06,44,993.50
2013,09,29,06,45,993.50
2013,09,29,06,46,993.50
2013,09,29,06,47,993.50
2013,09,29,06,48,993.50
2013,09,29,06,49,993.50
2013,09,29,06,50,993.50
2013,09,29,06,51,993.50
2013,09,29,06,52,993.50
2013,09,29,06,53,993.50
2013,09,29,06,54,993.50
2013,09,29,06,55,993.50
2013,09,29,06,56,993.50
2013,09,29,06,57,993.50
2013,09,29,06,58,993.50
2013,09,29,06,59,993.70
2013,09,29,07,00,993.70
2013,09,29,07,01,993.70
2013,09,29,07,02,993.70
2013,09,29,07,03,993.70
2013,09,29,07,04,993.70
2013,09,29,07,05,993.70
2013,09,29,07,06,993.70
2013,09,29,07,07,993.70
2013,09,29,07,08,993.70
2013,09,29,07,09,993.70
2013,09,29,07,10,993.70
2013,09,29,07,11,993.70
2013,09,29,07,12,993.70
2013,09,29,07,13,993.70
2013,09,29,07,14,994.00
2013,09,29,07,15,994.00
2013,09,29,07,16,994.00
2013,09,29,07,17,994.00
2013,09,29,07,18,994.00
2013,09,29,07,19,994.00
2013,09,29,07,20,994.00
2013,09,29,07,21,994.00
2013,09,29,07,22,994.00
2013,09,29,07,23,994.00
2013,09,29,07,24,994.00
2013,09,29,07,25,994.00
2013,09,29,07,26,994.00
2013,09,29,07,27,994.00
2013,09,29,07,28,994.00
2013,09,29,07,29,993.90
2013,09,29,07,30,993.90
2013,09,29,07,31,993.90
2013,09,29,07,32,993.90
2013,09,29,07,33,993.90
2013,09,29,07,34,993.90
2013,09,29,07,35,993.90
2013,09,29,07,36,993.90
2013,09,29,07,37,993.90
2013,09,29,07,38,993.90
2013,09,29,07,39,993.90
2013,09,29,07,40,993.90
2013,09,29,07,41,993.90
2013,09,29,07,42,993.90
2013,09,29,07,43,993.90
2013,09,29,07,44,993.80
2013,09,29,07,45,993.80
2013,09,29,07,46,993.80
2013,09,29,07,47,993.80
2013,09,29,07,48,993.80
2013,09,29,07,49,993.80
2013,09,29,07,50,993.80
2013,09,29,07,51,993.80
2013,09,29,07,52,993.80
2013,09,29,07,53,993.80
2013,09,29,07,54,993.80
2013,09,29,07,55,993.80
2013,09,29,07,56,993.80
2013,09,29,07,57,993.80
2013,09,29,07,58,993.80
2013,09,29,07,59,994.10
2013,09,29,08,00,994.10
2013,09,29,08,01,994.10
2013,09,29,08,02,994.10
2013,09,29,08,03,994.10
2013,09,29,08,04,994.10
2013,09,29,08,05,994.10
2013,09,29,08,06,994.10
2013,09,29,08,07,994.10
2013,09,29,08,08,994.10
2013,09,29,08,09,994.10
2013,09,29,08,10,994.10
2013,09,29,08,11,994.10
2013,09,29,08,12,994.10
2013,09,29,08,13,994.10
2013,09,29,08,14,994.10
2013,09,29,08,15,994.10
2013,09,29,08,16,994.10
2013,09,29,08,17,994.10
2013,09,29,08,18,994.10
2013,09,29,08,19,994.10
2013,09,29,08,20,994.10
2013,09,29,08,21,994.10
2013,09,29,08,22,994.10
2013,09,29,08,23,994.10
2013,09,29,08,24,994.10
2013,09,29,08,25,994.10
2013,09,29,08,26,994.10
2013,09,29,08,27,994.10
2013,09,29,08,28,994.10
2013,09,29,08,29,994.20
2013,09,29,08,30,994.20
2013,09,29,08,31,994.20
2013,09,29,08,32,994.20
2013,09,29,08,33,994.20
2013,09,29,08,34,994.20
2013,09,29,08,35,994.20
2013,09,29,08,36,994.20
2013,09,29,08,37,994.20
2013,09,29,08,38,994.20
2013,09,29,08,39,994.20
2013,09,29,08,40,994.20
2013,09,29,08,41,994.20
2013,09,29,08,42,994.20
2013,09,29,08,43,994.20
2013,09,29,08,44,994.20
2013,09,29,08,45,994.20
2013,09,29,08,46,994.20
2013,09,29,08,47,994.20
2013,09,29,08,48,994.20
2013,09,29,08,49,994.20
2013,09,29,08,50,994.20
2013,09,29,08,51,994.20
2013,09,29,08,52,994.20
2013,09,29,08,53,994.20
2013,09,29,08,54,994.20
2013,09,29,08,55,994.20
2013,09,29,08,56,994.20
2013,09,29,08,57,994.20
2013,09,29,08,58,994.20
2013,09,29,08,59,994.20
2013,09,29,09,00,994.20
2013,09,29,09,01,994.20
2013,09,29,09,02,994.20
2013,09,29,09,03,994.20
2013,09,29,09,04,994.20
2013,09,29,09,05,994.20
2013,09,29,09,06,994.20
2013,09,29,09,07,994.20
2013,09,29,09,08,994.20
2013,09,29,09,09,994.20
2013,09,29,09,10,994.20
2013,09,29,09,11,994.20
2013,09,29,09,12,994.20
2013,09,29,09,13,994.20
2013,09,29,09,14,994.20
2013,09,29,09,15,994.20
2013,09,29,09,16,994.20
2013,09,29,09,17,994.20
2013,09,29,09,18,994.20
2013,09,29,09,19,994.20
2013,09,29,09,20,994.20
2013,09,29,09,21,994.20
2013,09,29,09,22,994.20
2013,09,29,09,23,994.20
2013,09,29,09,24,994.20
2013,09,29,09,25,994.20
2013,09,29,09,26,994.20
2013,09,29,09,27,994.20
2013,09,29,09,28,994.20
2013,09,29,09,29,994.30
2013,09,29,09,30,994.30
2013,09,29,09,31,994.30
2013,09,29,09,32,994.30
2013,09,29,09,33,994.30
2013,09,29,09,34,994.30
2013,09,29,09,35,994.30
2013,09,29,09,36,994.30
2013,09,29,09,37,994.30
2013,09,29,09,38,994.30
2013,09,29,09,39,994.30
2013,09,29,09,40,994.30
2013,09,29,09,41,994.30
2013,09,29,09,42,994.30
2013,09,29,09,43,994.30
2013,09,29,09,44,994.20
2013,09,29,09,45,994.20
2013,09,29,09,46,994.20
2013,09,29,09,47,994.20
2013,09,29,09,48,994.20
2013,09,29,09,49,994.20
2013,09,29,09,50,994.20
2013,09,29,09,51,994.20
2013,09,29,09,52,994.20
2013,09,29,09,53,994.20
2013,09,29,09,54,994.20
2013,09,29,09,55,994.20
2013,09,29,09,56,994.20
2013,09,29,09,57,994.20
2013,09,29,09,58,994.20
2013,09,29,09,59,994.20
2013,09,29,10,00,994.20
2013,09,29,10,01,994.20
2013,09,29,10,02,994.20
2013,09,29,10,03,994.20
2013,09,29,10,04,994.20
2013,09,29,10,05,994.20
2013,09,29,10,06,994.20
2013,09,29,10,07,994.20
2013,09,29,10,08,994.20
2013,09,29,10,10,994.20
2013,09,29,10,11,994.20
2013,09,29,10,12,994.20
2013,09,29,10,13,994.20
2013,09,29,10,14,994.30
2013,09,29,10,15,994.30
2013,09,29,10,16,994.30
2013,09,29,10,17,994.30
2013,09,29,10,18,994.30
2013,09,29,10,19,994.30
2013,09,29,10,20,994.30
2013,09,29,10,21,994.30
2013,09,29,10,22,994.30
2013,09,29,10,23,994.30
2013,09,29,10,24,994.30
2013,09,29,10,25,994.30
2013,09,29,10,26,994.30
2013,09,29,10,27,994.30
2013,09,29,10,28,994.30
2013,09,29,10,29,994.60
2013,09,29,10,30,994.60
2013,09,29,10,31,994.60
2013,09,29,10,32,994.60
2013,09,29,10,33,994.60
2013,09,29,10,34,994.60
2013,09,29,10,35,994.60
2013,09,29,10,36,994.60
2013,09,29,10,37,994.60
2013,09,29,10,38,994.60
2013,09,29,10,39,994.60
2013,09,29,10,40,994.60
2013,09,29,10,41,994.60
2013,09,29,10,42,994.60
2013,09,29,10,43,994.60
2013,09,29,10,44,994.30
2013,09,29,10,45,994.30
2013,09,29,10,46,994.30
2013,09,29,10,47,994.30
2013,09,29,10,48,994.30
2013,09,29,10,49,994.30
2013,09,29,10,50,994.30
2013,09,29,10,51,994.30
2013,09,29,10,52,994.30
2013,09,29,10,53,994.30
2013,09,29,10,54,994.30
2013,09,29,10,55,994.30
2013,09,29,10,56,994.30
2013,09,29,10,57,994.30
2013,09,29,10,58,994.30
2013,09,29,10,59,994.30
2013,09,29,11,00,994.30
2013,09,29,11,01,994.30
2013,09,29,11,02,994.30
2013,09,29,11,03,994.30
2013,09,29,11,04,994.30
2013,09,29,11,05,994.30
2013,09,29,11,06,994.30
2013,09,29,11,07,994.30
2013,09,29,11,08,994.30
2013,09,29,11,09,994.30
2013,09,29,11,10,994.30
2013,09,29,11,11,994.30
2013,09,29,11,12,994.30
2013,09,29,11,13,994.30
2013,09,29,11,14,994.60
2013,09,29,11,15,994.60
2013,09,29,11,16,994.60
2013,09,29,11,17,994.60
2013,09,29,11,18,994.60
2013,09,29,11,19,994.60
2013,09,29,11,20,994.60
2013,09,29,11,21,994.60
2013,09,29,11,22,994.60
2013,09,29,11,23,994.60
2013,09,29,11,24,994.60
2013,09,29,11,25,994.60
2013,09,29,11,26,994.60
2013,09,29,11,27,994.60
2013,09,29,11,28,994.60
2013,09,29,11,29,994.70
2013,09,29,11,30,994.70
2013,09,29,11,31,994.70
2013,09,29,11,32,994.70
2013,09,29,11,33,994.70
2013,09,29,12,23,994.90
2013,09,29,12,28,994.90
2013,09,29,12,36,994.80
2013,09,29,12,39,994.80
2013,09,29,12,43,994.80
2013,09,29,12,47,994.70
2013,09,29,12,48,994.70
2013,09,29,12,49,994.70
2013,09,29,12,50,994.70
2013,09,29,12,51,994.70
2013,09,29,12,52,994.70
2013,09,29,12,53,994.70
2013,09,29,12,54,994.70
2013,09,29,12,55,994.70
2013,09,29,12,56,994.70
2013,09,29,12,57,994.70
2013,09,29,12,58,994.70
2013,09,29,12,59,994.60
2013,09,29,13,00,994.60
2013,09,29,13,01,994.60
2013,09,29,13,02,994.60
2013,09,29,13,03,994.60
2013,09,29,13,04,994.60
2013,09,29,13,05,994.60
2013,09,29,13,06,994.60
2013,09,29,13,07,994.60
2013,09,29,13,08,994.60
2013,09,29,13,09,994.60
2013,09,29,13,10,994.60
2013,09,29,13,11,994.60
2013,09,29,13,12,994.60
2013,09,29,13,13,994.60
2013,09,29,13,14,994.20
2013,09,29,13,15,994.20
2013,09,29,13,16,994.20
2013,09,29,13,17,994.20
2013,09,29,13,18,994.20
2013,09,29,13,19,994.20
2013,09,29,13,20,994.20
2013,09,29,13,21,994.20
2013,09,29,13,22,994.20
2013,09,29,13,23,994.20
2013,09,29,13,24,994.20
2013,09,29,13,25,994.20
2013,09,29,13,26,994.20
2013,09,29,13,27,994.20
2013,09,29,13,28,994.20
2013,09,29,13,29,993.60
2013,09,29,13,30,993.60
2013,09,29,13,31,993.60
2013,09,29,13,32,993.60
2013,09,29,13,33,993.60
2013,09,29,13,34,993.60
2013,09,29,13,35,993.60
2013,09,29,13,36,993.60
2013,09,29,13,37,993.60
2013,09,29,13,38,993.60
2013,09,29,13,39,993.60
2013,09,29,13,40,993.60
2013,09,29,13,41,993.60
2013,09,29,13,42,993.60
2013,09,29,13,43,993.60
2013,09,29,13,44,993.50
2013,09,29,13,45,993.50
2013,09,29,13,46,993.50
2013,09,29,13,47,993.50
2013,09,29,13,48,993.50
2013,09,29,13,49,993.50
2013,09,29,13,50,993.50
2013,09,29,13,51,993.50
2013,09,29,13,52,993.50
2013,09,29,13,53,993.50
2013,09,29,13,54,993.50
2013,09,29,13,55,993.50
2013,09,29,13,56,993.50
2013,09,29,13,57,993.50
2013,09,29,13,58,993.50
2013,09,29,13,59,993.30
2013,09,29,14,00,993.30
2013,09,29,14,01,993.30
2013,09,29,14,02,993.30
2013,09,29,14,03,993.30
2013,09,29,14,04,993.30
2013,09,29,14,05,993.30
2013,09,29,14,06,993.30
2013,09,29,14,07,993.30
2013,09,29,14,08,993.30
2013,09,29,14,09,993.30
2013,09,29,14,10,993.30
2013,09,29,14,11,993.30
2013,09,29,14,12,993.30
2013,09,29,14,13,993.30
2013,09,29,14,14,993.10
2013,09,29,14,15,993.10
2013,09,29,14,16,993.10
2013,09,29,14,17,993.10
2013,09,29,14,18,993.10
2013,09,29,14,19,993.10
2013,09,29,14,20,993.10
2013,09,29,14,21,993.10
2013,09,29,14,22,993.10
2013,09,29,14,23,993.10
2013,09,29,14,24,993.10
2013,09,29,14,25,993.10
2013,09,29,14,26,993.10
2013,09,29,14,27,993.10
2013,09,29,14,28,993.10
2013,09,29,14,29,993.10
2013,09,29,14,30,993.10
2013,09,29,14,31,993.10
2013,09,29,14,32,993.10
2013,09,29,14,33,993.10
2013,09,29,14,34,993.10
2013,09,29,14,35,993.10
2013,09,29,14,36,993.10
2013,09,29,14,37,993.10
2013,09,29,14,38,993.10
2013,09,29,14,39,993.10
2013,09,29,14,40,993.10
2013,09,29,14,41,993.10
2013,09,29,14,42,993.10
2013,09,29,14,43,993.10
2013,09,29,14,44,992.80
2013,09,29,14,45,992.80
2013,09,29,14,46,992.80
2013,09,29,14,47,992.80
2013,09,29,14,48,992.80
2013,09,29,14,49,992.80
2013,09,29,14,50,992.80
2013,09,29,14,51,992.80
2013,09,29,14,52,992.80
2013,09,29,14,53,992.80
2013,09,29,14,54,992.80
2013,09,29,14,55,992.80
2013,09,29,14,56,992.80
2013,09,29,14,57,992.80
2013,09,29,14,58,992.80
2013,09,29,14,59,992.00
2013,09,29,15,00,992.00
2013,09,29,15,01,992.00
2013,09,29,15,02,992.00
2013,09,29,15,03,992.00
2013,09,29,15,04,992.00
2013,09,29,15,05,992.00
2013,09,29,15,06,992.00
2013,09,29,15,07,992.00
2013,09,29,15,08,992.00
2013,09,29,15,09,992.00
2013,09,29,15,10,992.00
2013,09,29,15,11,992.00
2013,09,29,15,12,992.00
2013,09,29,15,13,992.00
2013,09,29,15,14,991.70
2013,09,29,15,15,991.70
2013,09,29,15,16,991.70
2013,09,29,15,17,991.70
2013,09,29,15,18,991.70
2013,09,29,15,19,991.70
2013,09,29,15,20,991.70
2013,09,29,15,21,991.70
2013,09,29,15,22,991.70
2013,09,29,15,23,991.70
2013,09,29,15,24,991.70
2013,09,29,15,25,991.70
2013,09,29,15,26,991.70
2013,09,29,15,27,991.70
2013,09,29,15,28,991.70
2013,09,29,15,29,991.00
2013,09,29,15,30,991.00
2013,09,29,15,31,991.00
2013,09,29,15,32,991.00
2013,09,29,15,33,991.00
2013,09,29,15,34,991.00
2013,09,29,15,35,991.00
2013,09,29,15,36,991.00
2013,09,29,15,37,991.00
2013,09,29,15,38,991.00
2013,09,29,15,39,991.00
2013,09,29,15,40,991.00
2013,09,29,15,41,991.00
2013,09,29,15,42,991.00
2013,09,29,15,43,991.00
2013,09,29,15,44,990.80
2013,09,29,15,45,990.80
2013,09,29,15,46,990.80
2013,09,29,15,47,990.80
2013,09,29,15,48,990.80
2013,09,29,15,49,990.80
2013,09,29,15,50,990.80
2013,09,29,15,51,990.80
2013,09,29,15,52,990.80
2013,09,29,15,53,990.80
2013,09,29,15,54,990.80
2013,09,29,15,55,990.80
2013,09,29,15,56,990.80
2013,09,29,15,57,990.80
2013,09,29,15,58,990.80
2013,09,29,15,59,990.20
2013,09,29,16,00,990.20
2013,09,29,16,01,990.20
2013,09,29,16,02,990.20
2013,09,29,16,03,990.20
2013,09,29,16,04,990.20
2013,09,29,16,05,990.20
2013,09,29,16,06,990.20
2013,09,29,16,07,990.20
2013,09,29,16,08,990.20
2013,09,29,16,09,990.20
2013,09,29,16,10,990.20
2013,09,29,16,11,990.20
2013,09,29,16,12,990.20
2013,09,29,16,13,990.20
2013,09,29,16,14,989.90
2013,09,29,16,15,989.90
2013,09,29,16,16,989.90
2013,09,29,16,17,989.90
2013,09,29,16,18,989.90
2013,09,29,16,19,989.90
2013,09,29,16,20,989.90
2013,09,29,16,21,989.90
2013,09,29,16,22,989.90
2013,09,29,16,29,989.50
2013,09,29,16,30,989.50
2013,09,29,16,31,989.50
2013,09,29,16,32,989.50
2013,09,29,16,33,989.50
2013,09,29,16,34,989.50
2013,09,29,16,35,989.50
2013,09,29,16,36,989.50
2013,09,29,16,37,989.50
2013,09,29,16,38,989.50
2013,09,29,16,39,989.50
2013,09,29,16,40,989.50
2013,09,29,16,41,989.50
2013,09,29,16,42,989.50
2013,09,29,16,43,989.50
2013,09,29,16,44,988.40
2013,09,29,16,45,988.40
2013,09,29,16,46,988.40
2013,09,29,16,47,988.40
2013,09,29,16,48,988.40
2013,09,29,16,49,988.40
2013,09,29,16,50,988.40
2013,09,29,16,51,988.40
2013,09,29,16,52,988.40
2013,09,29,16,53,988.40
2013,09,29,16,54,988.40
2013,09,29,16,55,988.40
2013,09,29,16,56,988.40
2013,09,29,16,57,988.40
2013,09,29,16,58,988.40
2013,09,29,16,59,987.50
2013,09,29,17,00,987.50
2013,09,29,17,01,987.50
2013,09,29,17,02,987.50
2013,09,29,17,03,987.50
2013,09,29,17,04,987.50
2013,09,29,17,05,987.50
2013,09,29,17,06,987.50
2013,09,29,17,07,987.50
2013,09,29,17,08,987.50
2013,09,29,17,09,987.50
2013,09,29,17,10,987.50
2013,09,29,17,11,987.50
2013,09,29,17,12,987.50
2013,09,29,17,13,987.50
2013,09,29,17,14,986.40
2013,09,29,17,15,986.40
2013,09,29,17,16,986.40
2013,09,29,17,17,986.40
2013,09,29,17,18,986.40
2013,09,29,17,19,986.40
2013,09,29,17,20,986.40
2013,09,29,17,21,986.40
2013,09,29,17,22,986.40
2013,09,29,17,23,986.40
2013,09,29,17,24,986.40
2013,09,29,17,25,986.40
2013,09,29,17,26,986.40
2013,09,29,17,27,986.40
2013,09,29,17,28,986.40
2013,09,29,17,29,985.80
2013,09,29,17,30,985.80
2013,09,29,17,31,985.80
2013,09,29,17,32,985.80
2013,09,29,17,33,985.80
2013,09,29,17,34,985.80
2013,09,29,17,35,985.80
2013,09,29,17,36,985.80
2013,09,29,17,37,985.80
2013,09,29,17,38,985.80
2013,09,29,17,39,985.80
2013,09,29,17,40,985.80
2013,09,29,17,41,985.80
2013,09,29,17,42,985.80
2013,09,29,17,43,985.80
2013,09,29,17,44,984.80
2013,09,29,17,45,984.80
2013,09,29,17,46,984.80
2013,09,29,17,47,984.80
2013,09,29,17,48,984.80
2013,09,29,17,49,984.80
2013,09,29,17,50,984.80
2013,09,29,17,51,984.80
2013,09,29,17,52,984.80